Simultaneous Nadir Overpasses (SNOs) Predictions

Prediction of SNOs between AQUA and NPP Satellite Orbit:

Table of predicted SNOs for the next 14.0 days since TLE Epoch: 6/3/2023
Index Date (AQUA) Time (AQUA) Lat,Lon (AQUA) SZA (AQUA ) Date (NPP) Time (NPP) Lat,Lon (NPP) SZA (NPP ) Distance(km) Time Diff (sec)
1 06/05/2023 15:40:16 -80.42, 31.38 111.70 06/05/2023 15:39:29 -80.43, 31.42 111.68 0.86 47
2 06/05/2023 16:29:35 80.58,-159.27 68.00 06/05/2023 16:30:07 80.58,-159.14 67.96 2.38 32
3 06/08/2023 06:15:19 -80.47, 173.14 112.03 06/08/2023 06:14:49 -80.47, 173.14 112.01 0.14 30
4 06/08/2023 07:04:39 80.59, -17.85 67.74 06/08/2023 07:05:28 80.60, -17.75 67.69 1.86 49
5 06/10/2023 20:50:23 -80.49, -45.36 112.27 06/10/2023 20:50:11 -80.49, -45.49 112.24 2.58 12
6 06/10/2023 21:39:43 80.61, 123.64 67.50 06/10/2023 21:40:50 80.61, 123.61 67.46 0.66 67
7 06/13/2023 10:36:08 80.31, -73.66 67.93 06/13/2023 10:34:54 80.34, -73.58 67.96 3.54 74
8 06/13/2023 11:25:26 -80.52, 96.21 112.47 06/13/2023 11:25:32 -80.52, 96.16 112.47 0.85 6
9 06/16/2023 01:11:05 80.49, 69.54 67.48 06/16/2023 01:10:10 80.50, 69.64 67.50 1.94 55



Historial Predications of SNOs between AQUA and NPP
